sat.trackr.live / text

‹ back to catalog

STARLINK-33932

NORAD 63775 · 2025-091A

PAYLOAD ACTIVE UNKNOWN

§ Identity

Operator
Country
US
Launch date
2025-05-02
Launch site
AFETR
Launch vehicle
Mass (kg)
RCS (m²)

Purposes: comms

External: N2YO · Heavens-Above · Gunter

§ Orbital elements

Epoch: 2026-05-24T20:42:29.509920Z

Period
94.27 min
Inclination
43.0053°
Eccentricity
0.0001247
Mean motion
15.27606161 rev/d
Perigee alt
482.1 km
Apogee alt
483.8 km
Semi-major
6,861.1 km
B*
5.7536e-4
RAAN
342.1931°
Arg perigee
282.2711°
Mean anomaly
77.8001°
Rev number
6,059

§ Raw data

STARLINK-339321 63775U 25091A   26144.86284155  .00015617  00000+0  57536-3 0  99992 63775  43.0053 342.1931 0001247 282.2711  77.8001 15.27606161 60593

JSON: /api/v1/satellites/63775 · /tle

For live sub-satellite position, see the globe view (requires WebGL).

§ Visibility from observer

Set your observer location to see the next 7 days of passes ≥ 10°. The values pass through the URL so the page stays shareable.

No JS? Fill the form by hand. The geolocation button needs JavaScript.